Temperature
14 14 15 15 15 15 15 15 15 15 15 15 15 15 15 15 15 15 15 15 15 15 15 15 15 15 15 15 15 15 15 15 15 14 14 15 15 15 15 15 15 15 15
15 14 15 14 15 15 15 15 15 15 15 15 15 15 15 15 15 15 15 15 15 15 15 15 15 15 15 15 15 15 15 15 15 14 14 14 14 14 14 14 14 14 14
15 14 14 14 14 14 14 15 15 15 15 15 15 15 15 15 15 15 15 15 15 15 15 15 15 15 15 14 14 14 14 14 14 14 14 14 14 14 14 14 14 14 14
14 14 14 14 14 14 14 14 14 14 14 14 15 15 15 15 14 14 14 14 14 15 15 15 15 15 14 14 14 14 14 14 14 14 14 14 14 14 14 14 14 14 14
14 14 14 14 14 14 14 14 14 14 14 14 14 14 14 14 14 14 14 14 14 14 14 14 14 14 14 14 14 14 14 14 14 14 14 14 14 14 14 14 14 14 14
14 14 14 14 14 14 14 14 14 14 14 14 14 14 14 14 14 14 14 14 14 14 14 14 14 14 14 14 14 14 14 14 14 14 14 14 14 13 14 14 14 14 14
14 14 14 14 13 14 14 13 13 14 14 14 14 14 14 14 14 14 14 14 14 14 14 14 14 14 14 13 13 13 14 14 14 14 13 13 13 13 13 13 13 13 13
14 13 13 13 13 13 13 13 13 13 13 13 13 13 13 13 13 13 13 13 13 13 13 14 13 13 13 13 13 13 13 13 13 13 13 13 13 13 13 13 13 13 13
13 13 13 13 13 13 13 13 13 13 13 13 13 13 13 13 13 13 13 13 13 13 13 13 13 13 13 13 13 13 13 13 13 13 13 13 13 13 13 13 13 12 12
13 13 13 13 12 12 12 13 13 13 13 13 13 13 13 13 13 13 13 13 13 13 13 13 13 13 13 13 13 13 13 13 13 12 12 12 12 12 12 12 12 12 12
12 12 12 12 12 12 12 12 12 12 12 12 12 12 12 12 12 12 12 12 12 12 12 12 13 13 12 12 12 12 12 12 12 12 12 12 12 12 12 12 12 12 12
12 12 12 12 12 12 12 12 12 12 12 12 12 12 12 12 12 12 12 12 12 12 12 12 12 12 12 12 12 12 12 12 12 12 12 12 12 12 12 12 12 11 11
12 12 12 11 12 12 12 12 12 11 11 11 11 11 11 11 11 11 11 11 11 11 12 12 12 12 12 12 11 11 11 11 11 11 11 11 11 11 11 11 11 11 11
11 11 11 11 11 11 11 11 11 11 11 11 11 11 11 11 11 11 11 11 11 11 11 11 11 11 11 11 11 11 11 11 11 11 11 11 11 11 11 11 11 11 11
11 11 11 11 11 11 11 11 11 11 11 11 11 11 11 11 11 11 11 11 11 11 11 11 11 11 11 11 11 11 11 10 11 10 10 11 11 10 10 10 10 10 10
11 11 11 11 10 10 10 10 10 10 10 10 10 10 10 10 10 10 10 10 10 10 10 10 10 10 10 10 10 10 10 10 10 10 10 10 10 10 10 10 10 10 10
10 10 10 10 10 10 10 10 10 10 10 10 10 10 10 10 10 10 10 10 10 10 10 10 9 9 10 9 9 10 10 10 10 10 10 10 10 10 10 10 9 9 9
10 10 10 10 10 10 10 10 10 10 9 9 9 9 9 9 9 9 9 9 9 9 9 9 9 9 9 9 9 9 9 9 9 9 9 9 9 9 9 9 9 9 9
10 10 10 10 9 9 9 9 9 9 9 9 9 9 9 9 9 9 9 9 9 9 9 8 8 8 8 8 8 8 8 8 9 9 9 9 9 9 8 8 8 8 8
9 9 9 9 9 9 9 9 9 9 9 9 9 8 8 8 8 8 8 8 8 8 8 8 8 8 8 8 8 8 8 8 8 8 8 8 8 8 8 8 8 8 8
9 9 9 8 8 8 8 8 8 8 8 8 8 8 8 8 8 8 8 8 8 8 8 7 7 7 7 7 7 7 7 7 7 7 7 7 7 7 7 7 7 7 7
8 8 8 8 8 8 8 8 8 8 7 7 7 7 7 7 7 7 7 7 7 7 7 7 7 7 7 6 6 6 6 6 6 7 7 7 7 6 6 6 6 7 7
8 8 8 8 8 7 7 7 7 7 7 7 7 7 7 7 7 7 7 7 7 7 7 7 6 6 6 6 6 5 5 6 5 6 6 6 6 6 6 6 6 6 6
8 8 7 7 7 7 7 7 7 6 6 6 6 6 6 6 6 6 6 6 6 6 6 6 6 6 6 5 5 5 5 5 5 5 5 5 5 5 5 5 5 5 5
7 7 7 7 7 7 6 6 6 6 6 6 6 6 6 6 6 5 6 6 6 6 6 5 5 5 5 5 5 5 5 5 5 4 4 5 5 5 5 5 5 5 5
7 7 6 6 6 6 6 6 6 6 6 5 5 5 5 5 5 5 5 5 5 5 5 5 5 5 5 5 5 5 5 4 4 4 4 4 4 4 4 4 4 4 4
Wind_Speed
1 2 7 8 8 9 10 11 11 11 12 12 12 12 13 13 13 13 12 13 12 12 12 12 12 13 13 13 13 13 13 13 13 13 14 14 14 14 14 14 13 12 14
4 5 8 8 9 10 10 10 11 11 11 11 11 11 12 12 12 12 11 11 12 12 12 12 12 12 12 12 12 12 13 13 12 12 12 12 12 13 13 12 12 11 12
6 6 9 8 9 10 10 10 11 11 10 10 10 11 11 11 11 11 11 11 11 11 11 11 12 11 11 11 11 11 11 12 12 12 11 10 10 11 12 11 11 11 11
8 8 8 9 9 10 10 10 11 10 10 10 10 10 10 10 10 10 10 10 10 10 10 10 11 11 11 10 10 10 10 11 11 11 10 9 8 10 11 11 11 11 11
8 8 8 9 9 10 10 10 10 10 10 9 9 9 9 9 9 9 9 9 9 9 9 9 9 10 10 10 10 10 10 10 10 10 9 9 8 9 10 10 10 10 9
7 8 8 9 9 9 9 8 8 9 9 9 9 9 8 8 8 8 8 9 9 8 8 8 8 8 8 9 9 9 9 9 9 9 8 8 7 8 9 9 9 9 9
6 7 8 9 9 8 8 8 8 7 8 8 8 8 8 7 8 8 8 8 8 8 7 7 7 7 7 8 8 8 8 8 8 7 7 7 6 7 7 8 8 8 8
7 7 8 8 8 8 8 7 7 7 6 7 7 7 7 7 8 7 7 7 7 7 7 7 7 6 7 7 8 8 7 7 7 6 5 5 6 6 6 7 7 7 7
7 7 7 7 7 7 7 7 7 7 6 6 6 6 7 7 8 8 7 7 7 7 7 7 7 6 6 7 7 7 7 8 7 5 4 4 4 5 5 6 6 7 7
5 5 5 6 6 6 6 7 7 7 6 6 5 6 6 7 7 7 7 7 7 7 8 7 6 6 5 6 6 7 7 7 6 5 4 4 5 4 4 4 5 5 5
4 3 4 4 5 5 5 5 6 6 5 5 5 6 6 6 6 6 7 7 7 8 7 7 6 6 5 5 5 6 6 6 5 4 3 4 5 4 4 4 4 4 4
4 3 3 3 3 4 4 5 5 5 5 5 5 5 5 5 5 5 6 7 7 7 6 6 6 5 5 5 5 5 5 6 5 4 3 4 4 4 4 4 3 3 3
4 4 3 3 4 4 4 4 4 4 4 4 5 5 5 5 5 5 5 5 6 6 5 5 5 4 4 4 4 4 5 5 4 4 3 3 3 3 3 3 3 2 2
4 3 3 4 4 4 4 4 3 3 3 3 3 4 5 4 4 4 3 3 4 4 4 4 3 3 3 3 3 3 4 4 3 3 2 2 2 2 2 2 2 1 1
4 4 3 3 4 4 4 3 3 3 3 3 3 3 4 4 3 2 2 3 3 3 3 3 3 3 2 2 2 3 3 3 3 3 2 2 1 1 1 1 0 1 1
5 4 3 3 4 5 4 3 3 3 3 3 3 2 3 3 3 3 2 2 2 3 3 3 2 2 1 1 1 2 2 3 3 3 2 2 1 1 1 1 1 2 2
6 5 4 4 4 4 4 3 3 3 4 3 2 2 3 3 4 3 3 2 1 2 3 3 2 2 1 1 1 1 2 2 2 2 1 1 1 2 2 2 3 3 3
5 5 4 4 4 4 4 3 3 3 3 3 2 2 2 3 4 3 3 2 2 3 3 2 1 1 1 1 0 1 1 2 2 2 1 1 0 1 2 3 3 4 4
5 5 4 3 4 4 4 3 3 3 2 2 2 2 2 2 3 3 2 2 3 3 2 2 1 1 1 0 0 1 0 0 1 1 1 1 1 1 2 2 3 4 5
4 4 4 3 3 3 3 2 2 2 1 1 1 2 2 2 3 3 2 2 3 3 2 1 1 1 1 1 0 1 2 1 1 1 1 1 1 1 1 2 2 3 4
4 3 4 3 3 3 3 3 2 2 1 1 1 1 2 2 2 3 2 2 3 3 3 3 2 1 1 1 1 2 3 2 1 1 1 0 0 1 1 1 1 2 3
5 4 3 3 3 3 4 3 2 2 2 2 1 0 1 2 2 3 3 3 3 3 3 3 2 2 0 1 2 1 1 2 2 2 1 1 1 1 1 1 1 1 2
5 5 5 4 4 3 3 2 2 1 0 0 1 1 1 2 3 3 3 3 3 3 3 3 4 3 2 1 1 2 2 3 2 2 2 1 1 1 1 1 1 2 2
6 5 5 4 4 3 3 4 4 3 3 3 2 2 1 2 2 2 3 3 3 3 4 4 3 3 3 2 1 0 1 2 2 1 2 2 2 1 2 2 2 2 2
4 5 4 4 4 4 4 5 5 4 3 2 1 1 1 1 1 2 2 3 3 2 3 4 3 3 3 3 2 1 1 1 1 2 2 3 3 3 2 2 2 2 2
2 3 3 3 3 3 4 4 5 5 4 3 3 2 2 1 1 1 1 2 2 2 3 3 4 4 3 3 2 2 2 2 2 2 3 3 3 3 3 2 2 2 2
Wind_Direction
160 154 137 127 120 115 111 110 107 103 98 95 93 93 92 91 90 88 88 87 89 89 90 91 92 90 88 88 86 83 81 80 80 82 83 87 89 88 86 83 79 75 78
152 137 125 121 119 118 114 112 110 106 102 99 97 97 96 95 94 92 90 89 89 90 89 89 91 92 91 90 89 85 80 79 82 82 81 83 88 90 89 84 81 79 79
127 125 123 116 117 119 116 111 113 113 110 106 103 101 100 98 96 94 92 90 89 90 91 90 88 89 91 92 90 88 84 83 83 81 77 75 83 87 90 87 84 80 80
120 120 120 113 113 118 117 113 110 112 113 111 107 106 105 103 101 98 96 93 91 91 93 93 92 89 89 93 91 89 86 83 84 80 72 71 78 84 85 86 83 79 77
110 114 119 118 115 112 115 116 112 110 112 112 110 110 109 106 105 104 104 99 95 93 94 94 93 91 89 89 92 93 88 83 82 73 69 66 73 83 83 84 82 80 77
108 110 115 118 116 109 109 111 112 112 113 114 113 112 111 108 107 108 107 106 103 99 98 99 94 92 91 87 87 92 92 90 81 71 69 69 71 81 85 85 85 82 79
114 106 113 114 114 109 107 108 108 110 112 112 114 112 112 110 110 109 107 107 109 107 103 103 99 96 94 90 86 87 95 97 86 79 72 71 76 82 90 90 90 87 84
119 105 108 110 107 108 107 107 108 104 104 109 110 115 113 110 108 110 109 107 110 113 110 103 101 95 89 86 83 84 93 96 90 85 77 78 90 90 94 91 89 89 86
112 106 99 106 107 105 106 107 103 101 100 104 109 114 116 114 110 107 106 106 109 110 111 108 104 101 92 86 81 81 92 94 84 79 80 84 96 94 98 97 89 87 82
104 106 104 102 104 103 104 109 105 101 99 100 104 107 114 113 112 110 107 109 114 113 109 105 103 100 94 88 83 83 86 88 80 76 77 90 95 92 94 96 90 84 82
103 107 111 108 104 108 110 109 106 105 101 101 100 103 103 103 110 112 112 115 116 112 109 104 99 90 78 76 79 81 79 76 78 75 81 100 98 92 87 90 87 81 78
146 141 124 118 111 107 112 105 99 99 96 95 93 91 96 101 107 112 115 117 119 112 107 105 98 84 65 58 60 70 74 77 74 67 83 105 107 98 89 88 87 79 67
166 156 150 140 128 119 110 107 101 100 97 94 96 99 99 96 95 95 99 101 103 101 92 93 85 77 71 65 62 71 76 79 74 64 70 101 107 104 94 92 87 78 59
157 166 164 152 137 128 120 121 116 113 105 99 102 108 110 99 91 89 89 92 94 93 89 87 87 84 75 73 81 86 82 86 83 77 71 92 113 118 104 94 87 72 54
167 175 170 156 148 141 135 137 131 131 128 124 117 117 123 120 118 103 91 89 92 97 97 96 99 92 77 72 82 93 93 95 95 86 70 70 66 75 75 46 31 7 349
180 182 172 161 157 146 145 146 145 139 129 121 119 126 127 128 132 126 110 103 97 107 115 111 105 99 85 84 74 103 118 116 109 94 78 52 16 346 300 304 313 300 296
184 181 174 166 152 150 153 155 144 142 135 131 138 143 139 139 141 139 136 134 125 117 111 98 88 88 72 56 48 77 124 135 141 129 106 72 13 335 306 299 299 293 287
177 176 179 167 158 162 159 154 146 141 138 145 151 157 155 153 145 135 145 155 139 119 108 120 124 93 66 55 356 336 100 137 145 162 159 160 320 323 306 285 290 288 285
171 168 171 168 169 170 158 148 137 132 134 144 143 150 166 168 161 144 152 159 140 123 117 145 119 128 136 82 304 308 302 188 190 185 181 188 208 253 285 284 284 291 286
162 158 159 164 170 166 151 136 128 121 120 122 138 166 174 176 162 146 149 156 147 142 149 150 142 126 175 186 12 348 320 289 230 208 214 182 206 246 269 285 291 293 292
158 160 167 164 175 164 166 169 177 196 200 199 169 191 185 184 174 161 162 165 159 170 178 172 154 144 116 90 65 1 337 322 283 266 211 140 224 254 248 272 300 307 315
176 177 178 179 183 180 185 186 188 188 200 203 177 178 187 185 187 184 166 174 175 174 176 177 154 150 164 128 130 104 325 328 325 318 304 232 277 337 320 306 299 294 310
184 188 190 191 187 187 180 162 137 101 72 220 228 229 227 202 202 192 182 174 179 175 189 194 178 169 180 222 152 160 180 231 288 306 306 298 313 317 317 319 303 289 284
197 192 192 193 189 188 175 168 168 178 204 223 220 224 230 211 198 195 182 176 179 176 187 201 189 183 170 194 239 201 204 195 202 284 313 316 317 306 314 320 313 304 288
190 186 192 190 190 186 179 179 181 192 207 202 198 205 223 214 190 188 182 172 173 180 185 194 194 186 183 188 195 212 246 287 223 208 265 296 316 297 295 291 285 290 285
176 178 177 177 193 192 188 186 188 193 191 187 200 206 217 220 198 216 197 176 178 180 190 198 198 194 197 191 195 200 204 217 230 216 241 262 277 290 300 289 276 274 276
Height
1530 1530 1531 1531 1532 1532 1532 1533 1533 1533 1533 1534 1534 1534 1534 1535 1535 1536 1536 1536 1537 1537 1537 1537 1537 1537 1537 1537 1538 1538 1538 1538 1538 1539 1539 1539 1539 1539 1539 1539 1539 1539 1539
1529 1530 1531 1531 1532 1532 1532 1532 1533 1533 1534 1534 1534 1534 1535 1535 1535 1536 1536 1536 1537 1537 1537 1537 1538 1538 1538 1538 1538 1538 1539 1539 1539 1539 1540 1540 1540 1540 1540 1540 1540 1540 1540
1529 1530 1530 1531 1531 1532 1532 1532 1533 1533 1534 1534 1534 1534 1535 1535 1536 1536 1536 1537 1537 1537 1537 1537 1538 1538 1538 1538 1538 1539 1539 1539 1540 1540 1540 1541 1541 1541 1541 1541 1541 1541 1541
1528 1529 1530 1531 1531 1531 1532 1532 1532 1533 1533 1534 1534 1534 1535 1535 1536 1536 1536 1536 1537 1537 1537 1537 1537 1538 1538 1538 1539 1539 1539 1540 1540 1541 1541 1541 1542 1542 1542 1542 1542 1542 1541
1528 1529 1530 1531 1531 1531 1531 1531 1532 1533 1533 1534 1534 1534 1535 1535 1535 1536 1536 1536 1536 1537 1537 1537 1537 1537 1538 1538 1539 1539 1540 1540 1541 1541 1541 1542 1542 1542 1542 1542 1542 1542 1542
1528 1528 1529 1530 1530 1531 1531 1531 1532 1532 1533 1533 1534 1534 1534 1535 1535 1535 1535 1536 1536 1536 1537 1537 1537 1537 1537 1538 1538 1539 1540 1540 1541 1541 1541 1542 1542 1542 1542 1542 1542 1542 1542
1527 1528 1529 1529 1530 1530 1530 1531 1531 1532 1532 1533 1533 1533 1534 1534 1534 1534 1535 1535 1536 1536 1536 1536 1537 1537 1537 1537 1538 1538 1539 1540 1540 1541 1541 1542 1542 1542 1542 1542 1542 1542 1542
1526 1527 1528 1528 1529 1529 1530 1530 1530 1531 1531 1532 1532 1532 1533 1533 1533 1534 1534 1534 1535 1535 1536 1536 1536 1536 1536 1537 1537 1538 1538 1539 1540 1541 1541 1541 1542 1542 1542 1542 1542 1542 1542
1526 1527 1527 1527 1528 1528 1529 1529 1530 1530 1530 1530 1531 1531 1532 1532 1533 1533 1533 1534 1534 1534 1535 1535 1535 1536 1536 1536 1537 1537 1538 1539 1539 1540 1540 1541 1541 1541 1541 1541 1542 1541 1541
1525 1526 1526 1526 1527 1527 1527 1528 1529 1529 1529 1529 1530 1530 1531 1531 1531 1532 1532 1532 1533 1533 1534 1534 1534 1535 1535 1536 1536 1536 1537 1538 1539 1539 1540 1540 1540 1540 1541 1541 1541 1541 1540
1524 1524 1525 1525 1526 1526 1526 1527 1527 1528 1528 1528 1528 1529 1529 1530 1530 1530 1531 1531 1532 1532 1533 1533 1533 1534 1534 1535 1535 1536 1537 1537 1538 1538 1539 1539 1539 1540 1540 1540 1539 1540 1540
1522 1523 1523 1524 1524 1525 1525 1525 1526 1526 1527 1527 1527 1527 1528 1528 1529 1529 1530 1530 1531 1531 1532 1532 1532 1533 1533 1534 1534 1535 1536 1536 1537 1537 1538 1538 1538 1538 1538 1538 1538 1538 1538
1520 1521 1522 1522 1523 1523 1523 1524 1524 1524 1525 1525 1525 1526 1526 1527 1527 1528 1528 1528 1529 1530 1530 1530 1531 1531 1532 1532 1533 1534 1534 1535 1535 1536 1536 1537 1537 1537 1537 1537 1537 1537 1537
1518 1519 1519 1520 1521 1521 1522 1522 1522 1522 1523 1523 1523 1524 1524 1525 1525 1526 1526 1526 1527 1528 1529 1529 1529 1530 1530 1531 1532 1532 1533 1533 1534 1534 1534 1535 1535 1535 1535 1535 1535 1535 1535
1516 1516 1517 1518 1518 1519 1520 1520 1520 1520 1521 1521 1522 1522 1523 1523 1523 1524 1524 1524 1525 1526 1527 1527 1528 1528 1529 1529 1530 1530 1531 1531 1532 1532 1533 1533 1533 1534 1533 1533 1533 1533 1533
1513 1514 1514 1515 1516 1517 1517 1518 1518 1518 1519 1519 1520 1520 1521 1521 1521 1522 1522 1523 1523 1524 1525 1525 1526 1526 1527 1527 1528 1528 1529 1529 1530 1530 1531 1531 1531 1531 1531 1531 1531 1531 1530
1510 1511 1512 1513 1513 1514 1515 1515 1516 1516 1517 1517 1518 1518 1518 1519 1519 1519 1520 1521 1522 1522 1523 1523 1524 1525 1525 1525 1526 1526 1527 1527 1527 1528 1528 1529 1529 1529 1529 1529 1528 1528 1528
1507 1508 1509 1510 1511 1511 1512 1513 1513 1514 1514 1515 1515 1516 1516 1516 1517 1517 1518 1519 1520 1520 1521 1521 1522 1522 1523 1523 1523 1524 1524 1524 1525 1525 1526 1526 1526 1526 1526 1526 1526 1525 1525
1504 1505 1505 1507 1508 1509 1509 1510 1511 1511 1512 1512 1513 1513 1513 1514 1514 1515 1515 1516 1517 1518 1519 1519 1520 1520 1520 1521 1521 1521 1522 1522 1522 1522 1523 1523 1523 1523 1523 1523 1523 1522 1522
1501 1502 1503 1503 1505 1506 1507 1507 1508 1508 1509 1509 1510 1510 1511 1511 1511 1512 1513 1514 1515 1515 1516 1517 1517 1518 1518 1518 1518 1519 1519 1519 1519 1519 1520 1520 1520 1520 1520 1520 1519 1519 1518
1498 1499 1499 1500 1501 1502 1503 1503 1504 1504 1505 1506 1507 1507 1508 1508 1508 1509 1510 1511 1512 1512 1513 1513 1514 1515 1515 1516 1516 1516 1516 1516 1516 1516 1517 1517 1517 1517 1517 1517 1516 1516 1515
1494 1495 1496 1497 1498 1499 1500 1500 1501 1502 1502 1503 1503 1504 1505 1505 1506 1506 1507 1508 1508 1509 1509 1510 1511 1511 1512 1513 1513 1513 1514 1514 1513 1513 1513 1513 1514 1514 1514 1514 1513 1513 1512
1490 1491 1492 1493 1494 1495 1496 1497 1498 1499 1499 1500 1500 1501 1501 1502 1502 1503 1504 1504 1505 1505 1506 1507 1507 1508 1509 1510 1511 1512 1512 1511 1510 1510 1510 1510 1510 1510 1510 1510 1510 1509 1508
1487 1488 1489 1490 1491 1492 1493 1493 1494 1494 1495 1496 1497 1497 1498 1499 1499 1500 1500 1501 1501 1502 1502 1503 1504 1505 1506 1506 1507 1508 1509 1509 1509 1507 1507 1507 1507 1507 1507 1507 1506 1505 1505
1483 1484 1486 1487 1487 1488 1489 1490 1491 1491 1492 1493 1494 1494 1495 1495 1496 1497 1497 1497 1498 1498 1498 1499 1500 1501 1502 1503 1504 1504 1505 1505 1505 1504 1503 1503 1503 1504 1503 1503 1502 1502 1501
1480 1481 1482 1483 1483 1484 1485 1486 1487 1488 1488 1489 1490 1491 1492 1492 1493 1493 1494 1494 1494 1494 1495 1495 1496 1497 1498 1499 1500 1501 1501 1501 1501 1501 1500 1499 1499 1500 1500 1500 1499 1498 1498